Weather History for Springfield, IL

Change the Weather History Date:

Saturday, March 23, 2013

  Actual Average Record
Temperature  
Mean Temperature 43 °F 45 °F  
Max Temperature 53 °F 55 °F 86 °F (1910)
Min Temperature 33 °F 35 °F 5 °F (1974)
Degree Days  
Heating Degree Days 22 20  
Month to date heating degree days 695 562  
Since 1 July heating degree days 4604 4833  
Cooling Degree Days 0 0  
Month to date cooling degree days 0 0  
Year to date cooling degree days 0 0  
Moisture  
Dew Point 24 °F    
Average Humidity 51    
Maximum Humidity 69    
Minimum Humidity 32    
Precipitation  
Precipitation T in 0.09 in 2.67 in (1936)
Month to date precipitation 1.69 1.90  
Year to date precipitation 7.41 5.53  
Snow  
Snow T in 0.10 in 3.80 in (1933)
Month to date snowfall 1.1 2.2  
Since 1 July snowfall 14.6 20.3  
Snow Depth 0.00 in    
Sea Level Pressure  
Sea Level Pressure 30.01 in    
Wind  
Wind Speed 9 mph (ENE)    
Max Wind Speed 21 mph    
Max Gust Speed 28 mph    
Visibility 10 miles    
Events      
T = Trace of Precipitation, MM = Missing Value Source: NWS Daily Summary

Daily Weather History Graph

Daily Weather History Graph

Search for Another Location

Airport:

Trip Planner

Search our weather history database for the weather conditions in past years. The results will help you decide how hot, cold, wet, or windy it might be!

Date:

Astronomy

Mar. 23, 2013 Rise Set
Actual Time 6:56 AM CDT 7:14 PM CDT
Civil Twilight 6:29 AM CDT 7:41 PM CDT
Nautical Twilight 5:58 AM CDT 8:12 PM CDT
Astronomical Twilight 5:25 AM CDT 8:45 PM CDT
Moon 3:41 PM CDT (3/23) 4:32 AM CDT (3/23)
Length of Visible Light 13h 11m
Length of Day
12h 17m
Waxing Gibbous, 85% of the Moon is Illuminated
Mar 23
Waxing Gibbous
Mar 27
Full
Apr 2
Last Quarter
Apr 10
New
Apr 18
First Quarter

Hourly Weather History & Observations

Time (CDT) Temp. Windchill Dew Point Humidity Pressure Visibility Wind Dir Wind Speed Gust Speed Precip Events Conditions
12:52 AM 36.0 °F 33.3 °F 19.9 °F 52% 30.06 in 10.0 mi WSW 3.5 mph - N/A   Overcast
1:52 AM 35.1 °F - 23.0 °F 61% 30.05 in 10.0 mi Calm Calm - N/A   Overcast
2:52 AM 35.1 °F 32.2 °F 24.1 °F 64% 30.05 in 10.0 mi North 3.5 mph - N/A   Overcast
3:52 AM 35.1 °F - 24.1 °F 64% 30.04 in 10.0 mi Calm Calm - N/A   Overcast
4:52 AM 35.1 °F - 23.0 °F 61% 30.04 in 10.0 mi Calm Calm - N/A   Overcast
5:52 AM 33.1 °F 28.7 °F 24.1 °F 70% 30.04 in 10.0 mi ENE 4.6 mph - N/A   Overcast
6:52 AM 34.0 °F 29.8 °F 24.1 °F 67% 30.06 in 10.0 mi NE 4.6 mph - N/A   Overcast
7:52 AM 35.1 °F 32.2 °F 24.1 °F 64% 30.09 in 10.0 mi NE 3.5 mph - N/A   Overcast
8:52 AM 36.0 °F 29.6 °F 24.1 °F 62% 30.09 in 10.0 mi ENE 8.1 mph - N/A   Overcast
9:52 AM 39.0 °F 35.7 °F 23.0 °F 53% 30.10 in 10.0 mi ENE 4.6 mph - N/A   Overcast
10:52 AM 43.0 °F 37.2 °F 21.0 °F 42% 30.08 in 10.0 mi East 10.4 mph - N/A   Mostly Cloudy
11:52 AM 46.9 °F - 21.0 °F 36% 30.07 in 10.0 mi ENE 10.4 mph - N/A   Clear
12:52 PM 48.9 °F - 21.9 °F 35% 30.07 in 10.0 mi East 4.6 mph - N/A   Clear
1:52 PM 51.1 °F - 23.0 °F 33% 30.04 in 10.0 mi East 10.4 mph - N/A   Clear
2:52 PM 51.1 °F - 23.0 °F 33% 30.00 in 10.0 mi ENE 11.5 mph 18.4 mph N/A   Clear
3:52 PM 52.0 °F - 25.0 °F 35% 29.97 in 10.0 mi NE 12.7 mph - N/A   Clear
4:52 PM 51.1 °F - 24.1 °F 35% 29.95 in 10.0 mi NE 15.0 mph 23.0 mph N/A   Clear
5:52 PM 48.9 °F - 24.1 °F 38% 29.93 in 10.0 mi ENE 17.3 mph - N/A   Clear
6:52 PM 46.9 °F - 24.1 °F 41% 29.93 in 10.0 mi ENE 12.7 mph - N/A   Clear
7:52 PM 45.0 °F 39.7 °F 25.0 °F 46% 29.94 in 10.0 mi NE 10.4 mph - N/A   Mostly Cloudy
8:52 PM 43.0 °F 36.8 °F 26.1 °F 51% 29.95 in 10.0 mi NE 11.5 mph - N/A   Partly Cloudy
9:52 PM 42.1 °F 34.2 °F 24.1 °F 49% 29.92 in 10.0 mi NE 16.1 mph - N/A   Overcast
10:52 PM 39.9 °F 30.8 °F 25.0 °F 55% 29.93 in 10.0 mi NE 18.4 mph 21.9 mph N/A   Overcast
11:52 PM 37.0 °F 28.1 °F 24.1 °F 59% 29.94 in 10.0 mi NE 15.0 mph - N/A   Overcast